AirNav   Air Wisconsin pilot careers
 
 1056 users online  

8T8 San Geronimo Airpark
San Antonio, Texas, USA

GOING TO SAN ANTONIO?


FAA INFORMATION EFFECTIVE 09 NOVEMBER 2017

Location

FAA Identifier: 8T8
Lat/Long: 29-30-36.7000N / 098-47-54.3000W
29-30.611667N / 098-47.905000W
29.5101944 / -98.7984167
(estimated)
Elevation: 1040 ft. / 317 m (estimated)
Variation: 07E (1985)
From city: 10 miles W of SAN ANTONIO, TX
Time zone: UTC -6 (UTC -5 during Daylight Saving Time)
Zip code: 78253

Airport Operations

Airport use: Open to the public
Activation date: 05/1981
Control tower: no
ARTCC: HOUSTON CENTER
FSS: SAN ANGELO FLIGHT SERVICE STATION
NOTAMs facility: SJT (NOTAM-D service available)
Attendance: UNATNDD
Wind indicator: yes
Segmented circle: no

Airport Communications

CTAF: 122.9
WX AWOS-3 at CVB (10 nm S): 119.25 (830-931-0232)
WX AWOS-3 at 5C1 (14 nm NE): 118.725 (830-755-9099)
WX ASOS at SAT (17 nm E): PHONE 210-805-5583

Nearby radio navigation aids

VOR radial/distance  VOR name  Freq  Var
SATr237/19.3SAN ANTONIO VORTAC116.8008E
SSFr300/(23.9)STINSON VOR108.4009E
RNDr264/26.8RANDOLPH VORTAC112.3005E
CSIr131/32.9CENTER POINT VORTAC117.5008E

 
NDB name  Hdg/Dist  Freq  Var  ID
ALAMO240/13.336804EAN .- -.
HONDO059/21.232908EHMA .... -- .-
DEVINE011/23.535907EHHH .... .... ....

Airport Services

Parking: tiedowns

Runway Information

Runway 17/35

Dimensions: 3000 x 40 ft. / 914 x 12 m
SHOULDERS SOFT & MUDDY WHEN WET.
Surface: asphalt, in good condition
Runway edge markings: NUMBERS 35 FT HIGH. CNTRLN 4 INCH WIDE BY 10 FT LONG WITH 30 FT SPACES.
Gradient: N.
RUNWAY 17  RUNWAY 35
Latitude: 29-30.858538N29-30.363448N
Longitude: 098-47.905867W098-47.904235W
Elevation: 1037.0 ft.1005.0 ft.
Gradient: 1.1% UP
Traffic pattern: leftleft
Runway heading: 173 magnetic, 180 true353 magnetic, 360 true
Markings: NSTD, in good conditionNSTD, in good condition
Obstructions: 10 ft. tree, 200 ft. from runway, 100 ft. left of centerline
+5 FT FENCE 100 FT EAST OF RY CNTRLN FM THLD TO 200 FT. 8-20 FT TREES 100 FT EAST OF CNTRLN FM THLD TO 200 FT.
25 ft. tree, 200 ft. from runway, 100 ft. right of centerline
+5 FT FENCE 100 FT EAST OF RY CNTRLN FM THLD TO 200 FT. 15-30+ FT TREES 100 FT EAST OF CNTRLN FM THLD TO 200 FT.

Airport Ownership and Management from official FAA records

Ownership: Privately-owned
Owner: SAN GERONIMO AIRPARK INC.
15464 CULEBRA BOX 30
SAN ANTONIO, TX 78253
Manager: LEWIS MASON
15464 CULEBRA BOX 27
SAN ANTONIO, TX 78253
Phone (210) 688-9072
ADDITIONAL CTC- RON O'DEA 210-488-5088, SECRETARY/TREASURER OF AIRPORT ASSOCIATION.

Airport Operational Statistics

Aircraft based on the field: 103
Single engine airplanes: 100
Helicopters: 1
Ultralights: 2
    
Aircraft operations: avg 40/week *
71% local general aviation
29% transient general aviation
* for 12-month period ending 27 October 2016

Additional Remarks

+15 FT HANGARS LOCATED 112 FT WEST ALONG RY 17/35.
NO TOUCH & GO OR STOP & GO LANDINGS AT NIGHT. LIMIT 2 TOUCH & GO DURG DAYTIME.
FOR CD CTC SAT APCH AT 210-805-5516.

Instrument Procedures

There are no published instrument procedures at 8T8.

Some nearby airports with instrument procedures:

KCVB - Castroville Municipal Airport (10 nm S)
KSKF - Kelly Field Airport (14 nm SE)
5C1 - Boerne Stage Field Airport (14 nm NE)
KSAT - San Antonio International Airport (17 nm E)
KSSF - Stinson Municipal Airport (20 nm SE)
 
Loc | Ops | Rwys | IFR | FBO | Links
Com | Nav | Svcs | Stats | Notes


 
Area around 8T8 (San Geronimo Airpark)
 
Road maps at: MapQuest Bing Google
 
Aerial photo
WARNING: Photo may not be current or correct
Aerial photo of 8T8 (San Geronimo Airpark)
Photo by Brian Goode
Photo taken 15-Jan-2014
looking north.

Do you have a better or more recent aerial photo of San Geronimo Airpark that you would like to share? If so, please send us your photo.

 
Sectional chart

 
Airport distance calculator
Flying to San Geronimo Airpark? Find the distance to fly.

From to 8T8

Sunrise and sunset
Times for 21-Nov-2017
 Local
(UTC-6)
 Zulu
(UTC)
Morning civil twilight06:4012:40
Sunrise07:0513:05
Sunset17:3723:37
Evening civil twilight18:0200:02

Current date and time
Zulu (UTC)  21-Nov-2017 13:57:14
Local (UTC-6)  21-Nov-2017 07:57:14
 
METAR
KCVB 
10nm S 
211335Z AUTO 32004KT 10SM SCT006 08/07 A2994 RMK AO2 T00830072
K5C1 
14nm NE 
211335Z AUTO 24010G14KT 10SM OVC006 12/11 A2993 RMK AO1
KSKF 
15nm SE 
211335Z 00000KT 10SM FEW007 BKN180 09/08 A2989 RMK SLP121 $
KSAT 
17nm E 
211351Z 27005KT 10SM BKN007 BKN033 BKN250 14/12 A2993 RMK AO2 SLP123 T01390117
KSSF 
20nm SE 
211353Z 00000KT 10SM BKN006 12/10 A2991 RMK AO2 SLP128 T01170100
TAF
KSKF 
15nm SE 
211000Z 2110/2216 25006KT 9999 SCT030 QNH2984INS BECMG 2115/2116 29009KT 9999 SKC QNH2979INS BECMG 2203/2204 35012KT 9999 SCT050 QNH2995INS BECMG 2205/2206 02010G15KT 9999 BKN030 QNH3002INS TX24/2121Z TN09/2112Z
KSAT 
17nm E 
211141Z 2112/2218 27004KT P6SM SCT025 BKN250 TEMPO 2112/2113 BKN025 FM211300 23006KT P6SM BKN015 BKN200 FM211600 24007KT P6SM SCT040 BKN200 FM220000 34012KT P6SM BKN040 FM220300 01014G24KT P6SM BKN035
NOTAMs
Click for the latest NOTAMs
NOTAMs are issued by the DoD/FAA and will open in a separate window not controlled by AirNav.

 

 
 

Would you like to see your business listed on this page?

 If your business provides an interesting product or service to pilots, flight crews, aircraft, or users of the San Geronimo Airpark, you should consider listing it here.  To start the listing process, click on the button below
 
Add a business
 

Other Pages about San Geronimo Airpark

Update a link
 
Copyright © AirNav, LLC. All rights reserved. Privacy Policy  Contact